Location: Caltech
(34.1382°N, 118.1253°W)
Time: 06:52:57
(UTC-07:00)

Lacrosse 5 - Visible Passes

Search period start: 01 August 2014 00:00
Search period end: 11 August 2014 00:00
Orbit: 710 x 718 km, 57.0° (Epoch: 27 July)

Date Brightness Start Highest point End Pass type
(mag) Time Alt. Az. Time Alt. Az. Time Alt. Az.
01 Aug 3.7 21:12:35 10° WNW 21:16:33 24° WSW 21:20:31 10° S visible
02 Aug 2.7 20:17:09 10° NW 20:22:00 50° SW 20:26:51 10° SSE visible
03 Aug 4.5 21:07:39 10° W 21:09:32 12° WSW 21:11:25 10° SW visible
04 Aug 3.8 20:10:57 10° WNW 20:15:07 26° WSW 20:19:16 10° S visible
